Погода в Кайсери

Турция     38°43′18″N   35°29′14″E
темп.,
°C
ветер,
м/с
пор.,
м/с
влажн.,
%
обл.,
%
осадки,
мм/ч
давл.,
гПа
погр.,
м
20 января, чт
чт2000:00−10зюз349371 0.4 102853
03:00−11юз349098 0.5 103059
06:00−11юз229282 0.2 103126
09:00−11юз228887 0.3 103238
12:00−6з24709 0.0 1031630
15:00−5з23655 0.0 1029687
18:00−11юв22802 0.0 103211
21:00−13вюв22792 0.0 103314
21 января, пт
пт2100:00−13вюв22771 0.0 103414
03:00−12вюв22751 0.0 103217
06:00−12вюв22721 0.0 103119
09:00−10в22740 0.0 103131
12:00−3св22640 0.0 1027201
15:00−1св22670 0.0 1024216
18:00−6юв22772 0.0 102611
21:00−8вюв32772 0.0 102618
22 января, сб
сб2200:00−9в22817 0.0 102622
03:00−8в228111 0.0 102527
06:00−8в338318 0.0 102328
09:00−6в3385100 0.0 102157
12:00+1вюв249261 0.0 1014150
15:00+2ю2390100 0.0 101089
18:00+1ююв4574100 0.0 100994
21:000ююв3684100 0.8 1010154
23 января, вс
вс2300:000юв71079100 1.2 1007257
03:000ююв71270100 1.4 1003268
06:00−2ю1197100 4.5 100775
09:00−2св239183 7.5 1008168
12:00−4сз4594100 0.8 1010364
15:00−3зсз5789100 3.4 1009619
18:00−5з2597100 1.4 1011262
21:00−6зюз3696100 1.9 1013294
24 января, пн
пн2400:00−8зюз4595100 1.1 1016265
03:00−8зсз4895100 2.6 1019467
06:00−9з4796100 2.3 1021465
09:00−8зюз3495100 4.1 1023321
12:00−6зсз5584100 0.9 1024764
15:00−6зсз2277100 1.2 1024644
18:00−8зюз1196100 0.3 102619
21:00−10ююз2295100 0.6 102712